Starlink 11533

operational
NORAD ID: 62836 Int'l Des: 2025-019 Owner: SPXS Country: US Constellation: starlink
LEOCIRCULAR

About Starlink 11533

Description loading...

Live Position

Loading 3D Globe...

Upcoming Passes

Altitude History

Altitude vs Time

uPlot chart will show altitude changes over time

Two-Line Element Set

1 62836U 25019H 25348.44896010 .00204141 00000-0 15486-2 0 9994
2 62836 42.9997 99.8707 0001769 264.7891 95.2775 15.70948604 50472
Epoch: Dec 14, 2025 • Age: 21 hours

Current Status

Altitude 366.9 km
Velocity 7.69 km/s
Sub-Earth Point -42.01°S, 148.72°E
Launch Date Jan 27, 2025
Age 0.8 years
Type internet

Technical Details

Classification Payload
Mass 960.00 kg
Dry Mass 910.00 kg
Total Mass 960.00 kg
Length 0.30 m
Diameter 4.10 m
Span 29.00 m
Shape Box + pan
Manufacturer SPXS
Bus Type Starlink V2MD
Phase Status In Orbit
Owner/State SPXS/US

Large Constellations

Loading constellations...